Location: Härggis
(46.9540°N, 8.4897°E)
Time: 21:10:44
(UTC+00:00)

USA 267 - Pass Details

Date: 27 May 2022
Orbit: 1101 x 1106 km, 123.0° (Epoch: 28 June)

Event Time Altitude Azimuth Distance (km) Brightness Sun altitude
Exits shadow 00:16:54 33° 174° (S) 1,746 3.8 -20.7°
Maximum altitude 00:19:25 49° 226° (SW) 1,398 3.4 -20.6°
Drops below altitude 10° 00:25:43 10° 300° (WNW) 2,965 5.7 -20.3°
Sets 00:28:19 0° 306° (NW) 3,926 6.4 -20.2°
